Regional Weather Roundup
Issued by NWS Goodland, KS

Home | Current Version | Previous Version | Graphics & Text | Print | Product List | Glossary On
Versions: 1 2 3 4 5 6 7 8 9 10 11 12 13 14 15 16 17 18 19 20 21 22 23 24 25 26 27 28 29 30 31 32 33 34 35 36 37 38 39 40 41 42 43 44 45 46 47 48 49 50
000
ASUS43 KGLD 090408
RWRGLD

GOODLAND FORECAST AREA HOURLY WEATHER ROUNDUP
NATIONAL WEATHER SERVICE GOODLAND KS
900 PM MST THU DEC 08 2016

...OFFICIAL OBSERVATIONS...

CITY           SKY/WX    TMP DP  RH WIND       PRES   REMARKS
GOODLAND KS    CLOUDY     8   1  73 S7        30.44F
HILL CITY KS   CLOUDY     1  -4  79 CALM      30.59S
IMPERIAL NEB   CLOUDY     1  -4  79 SE6       30.46F
MCCOOK NEB     CLOUDY     3  -2  79 W6        30.54F
AKRON CO       CLOUDY    11   4  73 S13       30.30F WCI  -4
BURLINGTON CO  CLOUDY    11   2  67 SE14      30.38F WCI  -5
LIMON CO       CLOUDY     7   0  73 S10       30.26F WCI  -8
$$

...UNOFFICIAL OBSERVATIONS...

CITY           SKY/WX    TMP DP  RH WIND       PRES   REMARKS
COLBY KS       CLEAR      1   1 100 CALM      30.51S
LENORA KS        N/A      9  32 100 MISG        N/A
NORTON KS      CLEAR      5  -2  72 SW6       30.57R
SHARON SPRINGS   N/A      5   0  79 SE9         N/A
TRENTON NEB      N/A      5  32 100 CALM        N/A
KIT CARSON CO    N/A     12   1  62 MISG        N/A
YUMA CO        FAIR       9   3  78 S6        30.36F
$$




USA.gov is the U.S. government's official web portal to all federal, state and local government web resources and services.